Starlink 30944

operational
NORAD ID: 58451 Int'l Des: 2023-183 Owner: SPXS Country: US Constellation: starlink
LEOCIRCULAR

Starlink 30944について

説明を読み込み中...

リアルタイム位置

3D地球を読み込み中...

次回通過

高度履歴

Altitude vs Time

uPlot chart will show altitude changes over time

軌道要素

1 58451U 23183Q 26035.21878168 -.00000017 00000-0 13794-4 0 9994
2 58451 42.9963 224.8264 0001272 73.3511 286.7471 15.02550362121657
Epoch: Feb 4, 2026 • Age: 12 hours

現在のステータス

高度 558.3 km
速度 7.58 km/s
衛星直下点 5.58°N, 3.57°E
打ち上げ日 Nov 28, 2023
運用期間 2.1 years
タイプ internet

技術仕様

分類 Payload
質量 730.00 kg
乾燥質量 700.00 kg
総質量 730.00 kg
長さ 0.30 m
直径 4.10 m
スパン 29.00 m
形状 Box + pan
製造者 SPXS
バスタイプ Starlink V2M
フェーズステータス In Orbit
所有者/国 SPXS/US

大規模コンステレーション

Loading constellations...